User: anonymous   Login
Location: Arbon
(43.0005°N, 0.7472°E)
Time: 15:43:37
(UTC+00:00)
Language:

Cosmos 1627 Rocket - Orbit

View from above orbital plane
View from above orbital plane
View from above satellite
View from above satellite

Ground track
Ground track

The orbit data is extracted from the following two-line orbital elements,

1 15506U 85011B   20293.06973066 -.00000073  00000-0 -90053-4 0  9998
2 15506  82.9154 113.2992 0035394 236.1780 242.6344 13.76210435793125
Epoch (UTC): 19 October 2020 01:40:24
Eccentricity: 0.0035394
inclination: 82.9154°
perigee height: 951 km
apogee height: 1003 km
right ascension of ascending node: 113.2992°
argument of perigee: 236.1780°
revolutions per day: 13.76210435
mean anomaly at epoch: 242.6344°
orbit number at epoch: 79312

The dashed part of the orbit path shows where the satellite is in the earth's shadow,  

DLR